Baku, Azerbaijan

3:34 PM +04 on November 21, 2018 (GMT +0400)
Bina

Weather History for UBBB - February, 2018

Change the Weather History Date:

Thursday, February 8, 2018

  Actual Average Record
Temperature  
Mean Temperature 43 °F -  
Max Temperature 49 °F - - ()
Min Temperature 35 °F - - ()
Degree Days  
Heating Degree Days 22    
Moisture  
Dew Point 38 °F    
Average Humidity 80    
Maximum Humidity 100    
Minimum Humidity 54    
Precipitation  
Precipitation 0.00 in - - ()
Sea Level Pressure  
Sea Level Pressure 30.43 in    
Wind  
Wind Speed 7 mph ()    
Max Wind Speed 12 mph    
Max Gust Speed -    
Visibility 5.6 miles    
Events Fog    
T = Trace of Precipitation, MM = Missing Value Source: Averaged Metar Reports

Daily Weather History Graph

Daily Weather History Graph

Search for Another Location

Airport or City:

Astronomy

Feb. 08, 2018 Rise Set
Actual Time 7:42 AM +04 6:06 PM +04
Civil Twilight 7:13 AM +04 6:34 PM +04
Nautical Twilight 6:41 AM +04 7:06 PM +04
Astronomical Twilight 6:09 AM +04 7:38 PM +04
Moon 1:37 AM +04 (2/8) 12:18 PM +04 (2/8)
Length of Visible Light 11h 20m
Length of Day
10h 23m
Last Quarter, 44% of the Moon is Illuminated
Feb 8
Last Quarter
Feb 16
New
Feb 23
First Quarter
Mar 2
Full
Mar 9
Last Quarter

Hourly Weather History & Observations

Time (+04) Temp. Windchill Dew Point Humidity Pressure Visibility Wind Dir Wind Speed Gust Speed Precip Events Conditions
12:00 AM 42.8 °F 37.5 °F 37.4 °F 81% 30.51 in 6.2 mi NNW 9.2 mph - N/A   Overcast
12:30 AM 42.8 °F 37.0 °F 37.4 °F 81% 30.51 in 6.2 mi NNW 10.4 mph - N/A   Overcast
1:00 AM 42 °F - 37 °F 75% 30.50 in 6 mi NW 6.7 mph - -   Partly Cloudy
1:00 AM 42.8 °F 36.6 °F 37.4 °F 81% 30.48 in 6.2 mi NNW 11.5 mph - N/A   Overcast
1:30 AM 42.8 °F 37.0 °F 37.4 °F 81% 30.48 in 6.2 mi NNW 10.4 mph - N/A   Overcast
2:00 AM 42.8 °F 37.5 °F 37.4 °F 81% 30.48 in 6.2 mi NW 9.2 mph - N/A   Overcast
2:30 AM 42.8 °F 37.5 °F 37.4 °F 81% 30.48 in 6.2 mi NW 9.2 mph - N/A   Overcast
3:00 AM 42.8 °F 37.5 °F 37.4 °F 81% 30.48 in 6.2 mi NNW 9.2 mph - N/A   Overcast
3:30 AM 42.8 °F 37.5 °F 37.4 °F 81% 30.48 in 6.2 mi NNW 9.2 mph - N/A   Overcast
4:00 AM 42 °F - 36 °F 74% 30.47 in 6 mi WNW 6.7 mph - -   Partly Cloudy
4:00 AM 42.8 °F 38.0 °F 37.4 °F 81% 30.48 in 6.2 mi NW 8.1 mph - N/A   Overcast
4:30 AM 42.8 °F 38.0 °F 37.4 °F 81% 30.45 in 6.2 mi NW 8.1 mph - N/A   Overcast
5:00 AM 41.0 °F 35.8 °F 39.2 °F 93% 30.45 in 6.2 mi NW 8.1 mph - N/A   Overcast
5:30 AM 41.0 °F 34.7 °F 39.2 °F 93% 30.48 in 6.2 mi NW 10.4 mph - N/A   Overcast
6:00 AM 41.0 °F 35.2 °F 39.2 °F 93% 30.48 in 6.2 mi NW 9.2 mph - N/A   Overcast
6:30 AM 41.0 °F 35.8 °F 39.2 °F 93% 30.48 in 6.2 mi NW 8.1 mph - N/A   Overcast
7:00 AM 42 °F - 38 °F 79% 30.47 in 6 mi WNW 6.7 mph - -   Overcast
7:00 AM 41.0 °F 35.2 °F 39.2 °F 93% 30.48 in 6.2 mi NNW 9.2 mph - N/A   Overcast
7:30 AM 41.0 °F 35.8 °F 39.2 °F 93% 30.48 in 6.2 mi NW 8.1 mph - N/A   Overcast
8:00 AM 42.8 °F 38.0 °F 39.2 °F 87% 30.48 in 6.2 mi NW 8.1 mph - N/A   Mostly Cloudy
8:30 AM 42.8 °F 38.6 °F 37.4 °F 81% 30.48 in 6.2 mi NW 6.9 mph - N/A   Mostly Cloudy
9:00 AM 42.8 °F 38.0 °F 39.2 °F 87% 30.48 in 6.2 mi NW 8.1 mph - N/A   Mostly Cloudy
9:30 AM 42.8 °F 38.0 °F 39.2 °F 87% 30.48 in 6.2 mi NW 8.1 mph - N/A   Mostly Cloudy
10:00 AM 44 °F - 37 °F 69% 30.48 in 6 mi West 8.9 mph - -   Overcast
10:00 AM 44.6 °F 39.7 °F 39.2 °F 81% 30.48 in 6.2 mi NW 9.2 mph - N/A   Mostly Cloudy
10:30 AM 46.4 °F 41.9 °F 39.2 °F 76% 30.48 in 6.2 mi NW 9.2 mph - N/A   Mostly Cloudy
11:00 AM 46.4 °F 41.9 °F 39.2 °F 76% 30.48 in 6.2 mi WNW 9.2 mph - N/A   Mostly Cloudy
11:30 AM 44.6 °F 39.7 °F 39.2 °F 81% 30.48 in 6.2 mi NW 9.2 mph - N/A   Mostly Cloudy
12:00 PM 44.6 °F 40.7 °F 39.2 °F 81% 30.45 in 6.2 mi NW 6.9 mph - N/A   Mostly Cloudy
12:30 PM 48.2 °F - 39.2 °F 71% 30.42 in 6.2 mi NNW 5.8 mph - N/A   Mostly Cloudy
1:00 PM 47 °F - 37 °F 59% 30.43 in 6 mi WNW 4.5 mph - -   Overcast
1:00 PM 48.2 °F - 37.4 °F 66% 30.42 in 6.2 mi North 4.6 mph - N/A   Scattered Clouds
1:30 PM 48.2 °F - 37.4 °F 66% 30.39 in - East 2.3 mph - N/A   Clear
2:00 PM 50.0 °F - 39.2 °F 66% 30.39 in - Variable 2.3 mph - N/A   Clear
2:30 PM 50.0 °F - 37.4 °F 62% 30.36 in - Variable 2.3 mph - N/A   Clear
3:00 PM 51.8 °F - 35.6 °F 54% 30.36 in - Variable 2.3 mph - N/A   Clear
3:30 PM 48.2 °F - 37.4 °F 66% 30.36 in 6.2 mi NE 8.1 mph - N/A   Partly Cloudy
4:00 PM 47 °F - 37 °F 60% 30.37 in 6 mi NE 4.5 mph - -   Mostly Cloudy
4:00 PM 48.2 °F - 37.4 °F 66% 30.36 in 6.2 mi East 4.6 mph - N/A   Partly Cloudy
4:30 PM 48.2 °F - 35.6 °F 62% 30.36 in - ESE 8.1 mph - N/A   Clear
5:00 PM 48.2 °F - 33.8 °F 58% 30.36 in - ENE 8.1 mph - N/A   Clear
5:30 PM 46.4 °F 41.9 °F 35.6 °F 66% 30.36 in - East 9.2 mph - N/A   Clear
6:00 PM 44.6 °F 40.2 °F 37.4 °F 76% 30.36 in - ESE 8.1 mph - N/A   Clear
6:30 PM 42.8 °F 38.6 °F 39.2 °F 87% 30.36 in - SE 6.9 mph - N/A   Clear
7:00 PM 44 °F - 38 °F 74% 30.37 in 6 mi East 4.5 mph - -  
7:00 PM 41.0 °F 37.1 °F 39.2 °F 93% 30.36 in - SSE 5.8 mph - N/A   Clear
7:30 PM 41.0 °F 38.0 °F 37.4 °F 87% 30.36 in - SSE 4.6 mph - N/A   Clear
8:00 PM 41.0 °F 36.4 °F 37.4 °F 87% 30.36 in - SE 6.9 mph - N/A   Clear
8:30 PM 39.2 °F 35.0 °F 37.4 °F 93% 30.36 in - SSE 5.8 mph - N/A   Clear
9:00 PM 39.2 °F 35.9 °F 37.4 °F 93% 30.36 in 5.0 mi South 4.6 mph - N/A   Partly Cloudy
9:30 PM 39.2 °F 35.9 °F 37.4 °F 93% 30.36 in 5.0 mi SE 4.6 mph - N/A   Partly Cloudy
10:00 PM 41 °F - 38 °F 87% 30.36 in 6 mi Calm Calm - -  
10:00 PM 39.2 °F 35.0 °F 37.4 °F 93% 30.36 in 3.1 mi ESE 5.8 mph - N/A   Partly Cloudy
10:30 PM 39.2 °F 35.0 °F 37.4 °F 93% 30.36 in 0.5 mi South 5.8 mph - N/A Fog Fog
11:00 PM 37.4 °F 32.1 °F 35.6 °F 93% 30.36 in 0.1 mi South 6.9 mph - N/A Fog Fog
11:30 PM 35.6 °F 30.7 °F 35.6 °F 100% 30.33 in 0.2 mi SSE 5.8 mph - N/A Fog Fog